Weather History for KDNL - September, 2013

Change the Weather History Date:

Wednesday, September 25, 2013

  Actual Average Record
Temperature  
Mean Temperature 70 °F -  
Max Temperature 75 °F 79 °F 94 °F (2010)
Min Temperature 64 °F 61 °F 57 °F (1997)
Cooling Degree Days 5    
Month to date cooling degree days 329  
Year to date cooling degree days 1931  
Growing Degree Days 18 (Base 50)    
Moisture  
Dew Point 63 °F    
Average Humidity 87    
Maximum Humidity 100    
Minimum Humidity 57    
Precipitation  
Precipitation 0.52 in - - ()
Month to date precipitation 1.40  
Year to date precipitation 50.47  
Sea Level Pressure  
Sea Level Pressure 29.87 in    
Wind  
Wind Speed 6 mph (NE)    
Max Wind Speed 14 mph    
Max Gust Speed 16 mph    
Visibility 8 miles    
Events Rain    
Averages and records for this station are not official NWS values.
T = Trace of Precipitation, MM = Missing Value Source: NWS Daily Summary

Daily Weather History Graph

Daily Weather History Graph

Search for Another Location

Airport or City:

Trip Planner

Search our weather history database for the weather conditions in past years. The results will help you decide how hot, cold, wet, or windy it might be!

Date:

Astronomy

Sep. 25, 2013 Rise Set
Actual Time 7:18 AM EDT 7:20 PM EDT
Civil Twilight 6:53 AM EDT 7:45 PM EDT
Nautical Twilight 6:24 AM EDT 8:14 PM EDT
Astronomical Twilight 5:55 AM EDT 8:43 PM EDT
Moon 11:40 PM EDT (9/25) 1:07 PM EDT (9/25)
Length of Visible Light 12h 51m
Length of Day
12h 01m
Waning Gibbous, 64% of the Moon is Illuminated
Sep 25
Waning Gibbous
Sep 26
Last Quarter
Oct 4
New
Oct 11
First Quarter
Oct 18
Full

Hourly Weather History & Observations

Time (EDT) Temp. Dew Point Humidity Pressure Visibility Wind Dir Wind Speed Gust Speed Precip Events Conditions
12:53 AM 70.0 °F 63.0 °F 78% 29.90 in 10.0 mi ESE 3.5 mph - N/A   Scattered Clouds
1:10 AM 69.8 °F 62.6 °F 78% 29.92 in 10.0 mi ESE 4.6 mph - N/A   Mostly Cloudy
1:53 AM 69.1 °F 63.0 °F 81% 29.91 in 10.0 mi SE 4.6 mph - N/A   Overcast
2:32 AM 69.8 °F 62.6 °F 78% 29.91 in 10.0 mi ESE 5.8 mph - N/A   Overcast
2:53 AM 69.1 °F 63.0 °F 81% 29.90 in 10.0 mi Calm Calm - N/A   Overcast
3:53 AM 69.1 °F 62.1 °F 78% 29.87 in 10.0 mi East 4.6 mph - N/A   Overcast
4:53 AM 68.0 °F 62.1 °F 81% 29.86 in 10.0 mi East 3.5 mph - N/A   Scattered Clouds
5:07 AM 68.0 °F 62.6 °F 83% 29.88 in 10.0 mi East 4.6 mph - N/A   Mostly Cloudy
5:19 AM 68.0 °F 62.6 °F 83% 29.88 in 10.0 mi East 5.8 mph - N/A   Overcast
5:53 AM 68.0 °F 61.0 °F 78% 29.87 in 10.0 mi East 5.8 mph - N/A   Overcast
6:53 AM 68.0 °F 60.1 °F 76% 29.87 in 10.0 mi ENE 6.9 mph - 0.00 in   Overcast
7:53 AM 68.0 °F 61.0 °F 78% 29.86 in 10.0 mi East 5.8 mph - N/A   Overcast
8:53 AM 69.1 °F 61.0 °F 75% 29.87 in 10.0 mi East 8.1 mph - N/A   Mostly Cloudy
9:53 AM 70.0 °F 60.1 °F 71% 29.88 in 10.0 mi East 8.1 mph - N/A   Overcast
10:53 AM 73.0 °F 57.9 °F 59% 29.88 in 10.0 mi East 5.8 mph - N/A   Overcast
11:53 AM 73.9 °F 57.9 °F 57% 29.87 in 10.0 mi NE 8.1 mph - 0.00 in Rain Light Rain
12:53 PM 73.0 °F 57.9 °F 59% 29.88 in 10.0 mi North 6.9 mph - N/A   Overcast
1:53 PM 66.9 °F 63.0 °F 87% 29.87 in 2.0 mi NE 6.9 mph - 0.11 in Rain Rain
1:55 PM 66.2 °F 62.6 °F 88% 29.88 in 1.5 mi NE 6.9 mph - 0.04 in Rain Heavy Rain
2:08 PM 64.4 °F 62.6 °F 94% 29.88 in 2.0 mi NE 4.6 mph - 0.13 in Rain Rain
2:18 PM 64.4 °F 62.6 °F 94% 29.87 in 4.0 mi NE 9.2 mph - 0.15 in Rain Rain
2:24 PM 64.4 °F 62.6 °F 94% 29.86 in 1.8 mi NE 12.7 mph - 0.22 in Rain Heavy Rain
2:31 PM 64.4 °F 62.6 °F 94% 29.87 in 1.2 mi ENE 6.9 mph - 0.28 in Rain Heavy Rain
2:36 PM 64.4 °F 62.6 °F 94% 29.86 in 2.0 mi NE 9.2 mph - 0.29 in Rain Rain
2:50 PM 64.4 °F 64.4 °F 100% 29.86 in 3.0 mi NE 10.4 mph - 0.31 in Rain Light Rain
2:53 PM 64.9 °F 63.0 °F 93% 29.85 in 4.0 mi NE 9.2 mph - 0.31 in Rain Light Rain
3:53 PM 66.0 °F 64.0 °F 93% 29.84 in 10.0 mi NE 5.8 mph - 0.01 in   Overcast
4:10 PM 66.2 °F 64.4 °F 94% 29.85 in 2.5 mi NE 8.1 mph - 0.04 in Rain Light Rain
4:18 PM 66.2 °F 64.4 °F 94% 29.85 in 6.0 mi NNE 8.1 mph - 0.04 in Rain Light Rain
4:53 PM 66.0 °F 64.0 °F 93% 29.83 in 10.0 mi NNE 10.4 mph - 0.04 in   Overcast
5:53 PM 66.0 °F 64.0 °F 93% 29.84 in 10.0 mi NE 9.2 mph - N/A   Overcast
6:23 PM 66.2 °F 62.6 °F 88% 29.85 in 10.0 mi NE 9.2 mph - N/A   Overcast
6:53 PM 64.9 °F 63.0 °F 93% 29.84 in 10.0 mi ENE 6.9 mph - 0.00 in   Overcast
7:53 PM 64.9 °F 64.0 °F 97% 29.86 in 7.0 mi North 6.9 mph - 0.00 in Rain Light Rain
8:45 PM 64.4 °F 64.4 °F 100% 29.88 in 7.0 mi North 6.9 mph - 0.00 in   Overcast
8:53 PM 64.9 °F 64.0 °F 97% 29.87 in 5.0 mi North 8.1 mph - 0.02 in Rain Rain
9:00 PM 64.4 °F 64.4 °F 100% 29.87 in 4.0 mi NNE 9.2 mph - 0.00 in Rain Light Rain
9:53 PM 64.0 °F 64.0 °F 100% 29.89 in 6.0 mi North 5.8 mph - 0.01 in Rain Light Rain
10:53 PM 64.0 °F 63.0 °F 96% 29.88 in 10.0 mi NE 4.6 mph - 0.02 in   Overcast
11:08 PM 64.4 °F 62.6 °F 94% 29.89 in 9.0 mi NE 5.8 mph - N/A   Overcast
11:15 PM 64.4 °F 64.4 °F 100% 29.89 in 10.0 mi NE 4.6 mph - N/A   Overcast
11:44 PM 64.4 °F 64.4 °F 100% 29.89 in 10.0 mi NE 5.8 mph - N/A   Overcast
11:53 PM 64.0 °F 63.0 °F 96% 29.88 in 10.0 mi NNE 5.8 mph - N/A   Overcast